Weather History for Alexander City, AL

Change the Weather History Date:

Saturday, January 19, 2013

  Actual Average (KAUO) Record (KAUO)
Temperature  
Mean Temperature 46 °F -  
Max Temperature 61 °F - 72 °F (1973)
Min Temperature 30 °F - 4 °F (1977)
Degree Days  
Heating Degree Days 20    
Month to date heating degree days  
Since 1 July heating degree days  
Moisture  
Dew Point 30 °F    
Average Humidity 64    
Maximum Humidity 90    
Minimum Humidity 22    
Precipitation  
Precipitation 0.00 in - 1.57 in (2001)
Month to date precipitation  
Year to date precipitation  
Sea Level Pressure  
Sea Level Pressure 30.33 in    
Wind  
Wind Speed 0 mph (SSE)    
Max Wind Speed 6 mph    
Max Gust Speed -    
Visibility 10 miles    
Events      
T = Trace of Precipitation, MM = Missing Value Source: NWS Daily Summary

Daily Weather History Graph

Daily Weather History Graph

Search for Another Location

Airport:

Trip Planner

Search our weather history database for the weather conditions in past years. The results will help you decide how hot, cold, wet, or windy it might be!

Date:

Astronomy

Jan. 19, 2013 Rise Set
Actual Time 6:45 AM CST 5:04 PM CST
Civil Twilight 6:18 AM CST 5:30 PM CST
Nautical Twilight 5:48 AM CST 6:00 PM CST
Astronomical Twilight 5:19 AM CST 6:30 PM CST
Moon 11:26 AM CST (1/19) 12:23 AM CST (1/19)
Length of Visible Light 11h 11m
Length of Day
10h 18m
First Quarter, 57% of the Moon is Illuminated
Jan 19
First Quarter
Jan 26
Full
Feb 3
Last Quarter
Feb 10
New
Feb 17
First Quarter

Hourly Weather History & Observations

Time (CST) Temp. Dew Point Humidity Pressure Visibility Wind Dir Wind Speed Gust Speed Precip Events Conditions
12:15 AM 34.7 °F 31.8 °F 89% 30.41 in 10.0 mi Calm Calm - N/A   Clear
12:35 AM 34.7 °F 31.8 °F 89% 30.40 in 10.0 mi Calm Calm - N/A   Clear
12:55 AM 34.7 °F 32.0 °F 90% 30.41 in 10.0 mi Calm Calm - N/A   Clear
1:15 AM 34.7 °F 32.0 °F 90% 30.41 in 10.0 mi Calm Calm - N/A   Clear
1:35 AM 34.7 °F 32.0 °F 90% 30.41 in 10.0 mi Calm Calm - N/A   Clear
1:55 AM 34.7 °F 32.0 °F 90% 30.40 in 10.0 mi Calm Calm - N/A   Clear
2:15 AM 34.7 °F 32.0 °F 90% 30.40 in 10.0 mi Calm Calm - N/A   Clear
2:35 AM 34.7 °F 32.0 °F 90% 30.40 in 10.0 mi Calm Calm - N/A   Clear
2:55 AM 34.7 °F 31.8 °F 89% 30.41 in 10.0 mi Calm Calm - N/A   Clear
3:15 AM 34.7 °F 31.6 °F 89% 30.41 in 10.0 mi Calm Calm - N/A   Clear
3:35 AM 34.2 °F 31.5 °F 90% 30.41 in 10.0 mi Calm Calm - N/A   Clear
3:55 AM 34.7 °F 31.8 °F 89% 30.42 in 10.0 mi Calm Calm - N/A   Clear
4:15 AM 34.7 °F 31.8 °F 89% 30.41 in 10.0 mi Calm Calm - N/A   Clear
4:35 AM 34.7 °F 31.6 °F 89% 30.41 in 10.0 mi Calm Calm - N/A   Clear
4:55 AM 34.7 °F 31.6 °F 89% 30.42 in 10.0 mi Calm Calm - N/A   Clear
5:15 AM 32.2 °F 29.3 °F 89% 30.41 in 10.0 mi Calm Calm - N/A   Clear
5:35 AM 31.1 °F 28.0 °F 88% 30.41 in 10.0 mi Calm Calm - N/A   Clear
5:55 AM 32.0 °F 29.3 °F 90% 30.41 in 10.0 mi Calm Calm - N/A   Clear
7:15 AM 30.4 °F 27.3 °F 88% 30.42 in 10.0 mi Calm Calm - N/A   Clear
7:55 AM 35.4 °F 31.5 °F 85% 30.42 in 10.0 mi Calm Calm - N/A   Clear
8:15 AM 37.0 °F 31.1 °F 79% 30.43 in 10.0 mi Calm Calm - N/A   Clear
8:35 AM 40.1 °F 31.5 °F 71% 30.44 in 10.0 mi Calm Calm - N/A   Clear
9:55 AM 49.6 °F 28.4 °F 44% 30.43 in 10.0 mi East 3.5 mph - N/A   Clear
10:15 AM 51.4 °F 28.0 °F 40% 30.42 in 10.0 mi SSE 4.6 mph - N/A   Clear
10:35 AM 54.7 °F 29.3 °F 38% 30.41 in 10.0 mi SSE 4.6 mph - N/A   Clear
11:15 AM 54.7 °F 25.7 °F 33% 30.38 in 10.0 mi SSE 3.5 mph - N/A   Clear
11:35 AM 55.2 °F 25.3 °F 32% 30.37 in 10.0 mi Calm Calm - N/A   Clear
11:55 AM 57.2 °F 25.7 °F 30% 30.35 in 10.0 mi Calm Calm - N/A   Clear
12:15 PM 57.2 °F 24.8 °F 29% 30.33 in 10.0 mi Calm Calm - N/A   Clear
12:35 PM 58.6 °F 22.8 °F 25% 30.32 in 10.0 mi SSE 4.6 mph - N/A   Clear
12:55 PM 59.9 °F 21.0 °F 22% 30.31 in 10.0 mi SSE 3.5 mph - N/A   Clear
1:15 PM 59.7 °F 21.4 °F 23% 30.30 in 10.0 mi Calm Calm - N/A   Clear
1:35 PM 59.9 °F 21.7 °F 23% 30.29 in 10.0 mi Calm Calm - N/A   Clear
1:55 PM 61.0 °F 22.1 °F 22% 30.29 in 10.0 mi Calm Calm - N/A   Clear
2:15 PM 61.0 °F 23.0 °F 23% 30.28 in 1.8 mi Calm Calm - N/A   Haze
2:35 PM 60.8 °F 21.0 °F 22% 30.28 in 10.0 mi Calm Calm - N/A   Clear
2:55 PM 61.0 °F 21.4 °F 22% 30.27 in 10.0 mi South 3.5 mph - N/A   Clear
3:15 PM 61.0 °F 22.6 °F 23% 30.27 in 10.0 mi Calm Calm - N/A   Clear
3:35 PM 59.9 °F 23.5 °F 25% 30.27 in 10.0 mi SSW 3.5 mph - N/A   Clear
3:55 PM 59.9 °F 25.2 °F 26% 30.27 in 10.0 mi SSE 3.5 mph - N/A   Clear
4:15 PM 59.9 °F 23.9 °F 25% 30.27 in 10.0 mi SE 5.8 mph - N/A   Clear
4:35 PM 59.9 °F 25.7 °F 27% 30.26 in 10.0 mi SE 3.5 mph - N/A   Clear
4:55 PM 57.2 °F 30.9 °F 37% 30.26 in 10.0 mi Calm Calm - N/A   Clear
5:15 PM 54.7 °F 29.7 °F 38% 30.26 in 10.0 mi Calm Calm - N/A   Clear
5:35 PM 50.9 °F 33.3 °F 51% 30.26 in 10.0 mi Calm Calm - N/A   Clear
5:55 PM 49.6 °F 34.9 °F 57% 30.26 in 10.0 mi Calm Calm - N/A   Clear
6:15 PM 49.1 °F 36.5 °F 62% 30.27 in 10.0 mi Calm Calm - N/A   Clear
6:35 PM 45.5 °F 34.7 °F 66% 30.27 in 10.0 mi Calm Calm - N/A   Clear
6:55 PM 42.1 °F 34.3 °F 74% 30.27 in 10.0 mi Calm Calm - N/A   Clear
7:15 PM 43.0 °F 34.2 °F 71% 30.27 in 10.0 mi Calm Calm - N/A   Clear
7:35 PM 42.1 °F 34.5 °F 75% 30.28 in 10.0 mi Calm Calm - N/A   Clear
7:55 PM 42.1 °F 35.2 °F 77% 30.28 in 10.0 mi Calm Calm - N/A   Clear
8:15 PM 40.8 °F 34.7 °F 79% 30.27 in 10.0 mi Calm Calm - N/A   Clear
8:35 PM 40.8 °F 34.9 °F 79% 30.27 in 10.0 mi Calm Calm - N/A   Clear
8:55 PM 37.9 °F 33.4 °F 84% 30.27 in 10.0 mi Calm Calm - N/A   Clear
9:15 PM 39.6 °F 34.2 °F 81% 30.26 in 10.0 mi Calm Calm - N/A   Clear
9:35 PM 37.0 °F 32.9 °F 85% 30.26 in 10.0 mi Calm Calm - N/A   Clear
9:55 PM 39.6 °F 35.2 °F 85% 30.27 in 10.0 mi Calm Calm - N/A   Clear
10:15 PM 39.6 °F 34.7 °F 83% 30.26 in 10.0 mi Calm Calm - N/A   Clear
10:35 PM 37.0 °F 33.1 °F 86% 30.25 in 10.0 mi Calm Calm - N/A   Clear
10:55 PM 37.0 °F 33.4 °F 87% 30.24 in 10.0 mi Calm Calm - N/A   Clear
11:15 PM 37.0 °F 33.4 °F 87% 30.24 in 10.0 mi Calm Calm - N/A   Clear
11:35 PM 37.0 °F 33.8 °F 88% 30.24 in 10.0 mi Calm Calm - N/A   Clear
11:55 PM 37.0 °F 33.8 °F 88% 30.24 in 10.0 mi Calm Calm - N/A   Clear